Hourly Weather Barsuki

Today, 18 April, Sunday

Time Temperature Precipitation Wind Pressure Humidity
00:00 +7°C° 0 mm 4 mps 748 mmHg 80%
01:00 +7°C° 0 mm 3 mps 748 mmHg 80%
02:00 +5°C° 0 mm 3 mps 748 mmHg 80%
03:00 +5°C° 0 mm 3 mps 748 mmHg 79%
04:00 +4°C° 0 mm 3 mps 748 mmHg 78%
05:00 +4°C° 0 mm 3 mps 748 mmHg 77%
06:00 +5°C° 0 mm 4 mps 748 mmHg 72%
07:00 +6°C° 0 mm 4 mps 748 mmHg 67%
08:00 +7°C° 0 mm 4 mps 748 mmHg 62%
09:00 +10°C° 0 mm 4 mps 748 mmHg 56%
10:00 +11°C° 0 mm 4 mps 749 mmHg 51%
11:00 +12°C° 0 mm 4 mps 749 mmHg 46%
12:00 +13°C° 0 mm 4 mps 749 mmHg 43%
13:00 +13°C° 0 mm 4 mps 749 mmHg 40%
14:00 +14°C° 0 mm 4 mps 749 mmHg 38%
15:00 +14°C° 0 mm 4 mps 749 mmHg 40%
16:00 +13°C° 0 mm 4 mps 749 mmHg 43%
17:00 +13°C° 0 mm 3 mps 749 mmHg 46%
18:00 +11°C° 0 mm 3 mps 749 mmHg 54%
19:00 +9°C° 0 mm 2 mps 749 mmHg 62%
20:00 +8°C° 0 mm 2 mps 750 mmHg 70%
21:00 +7°C° 0 mm 2 mps 750 mmHg 74%
22:00 +7°C° 0 mm 1 mps 750 mmHg 78%
23:00 +7°C° 0 mm 1 mps 750 mmHg 83%

Tomorrow, 19 April, Monday

Time Temperature Precipitation Wind Pressure Humidity
00:00 +6°C° 0 mm 2 mps 750 mmHg 83%
01:00 +6°C° 0 mm 2 mps 750 mmHg 83%
02:00 +6°C° 0 mm 2 mps 750 mmHg 83%
03:00 +6°C° 0 mm 2 mps 750 mmHg 83%
04:00 +6°C° 0 mm 2 mps 750 mmHg 84%
05:00 +5°C° 0 mm 3 mps 750 mmHg 84%
06:00 +5°C° 0 mm 3 mps 750 mmHg 82%
07:00 +7°C° 0 mm 3 mps 751 mmHg 80%
08:00 +7°C° 0 mm 3 mps 751 mmHg 79%
09:00 +8°C° 0 mm 3 mps 751 mmHg 75%
10:00 +7°C° 0 mm 4 mps 751 mmHg 72%
11:00 +8°C° 0 mm 4 mps 751 mmHg 69%
12:00 +8°C° 0 mm 4 mps 751 mmHg 69%
13:00 +8°C° 0 mm 4 mps 751 mmHg 70%
14:00 +8°C° 0 mm 4 mps 751 mmHg 70%
15:00 +7°C° 0 mm 4 mps 751 mmHg 72%
16:00 +8°C° 0 mm 3 mps 751 mmHg 75%
17:00 +7°C° 0 mm 3 mps 751 mmHg 77%
18:00 +7°C° 0 mm 3 mps 751 mmHg 78%
19:00 +7°C° 0 mm 2 mps 750 mmHg 79%
20:00 +6°C° 0 mm 2 mps 750 mmHg 79%
21:00 +6°C° 0 mm 2 mps 750 mmHg 79%
22:00 +5°C° 0 mm 3 mps 750 mmHg 79%
23:00 +5°C° 0 mm 3 mps 750 mmHg 79%

Day after tomorrow, 20 April, Tuesday

Time Temperature Precipitation Wind Pressure Humidity
00:00 +4°C° 0 mm 3 mps 749 mmHg 80%
01:00 +4°C° 0 mm 3 mps 749 mmHg 82%
02:00 +3°C° 0 mm 3 mps 749 mmHg 84%
03:00 +3°C° 0 mm 3 mps 749 mmHg 84%
04:00 +2°C° 0 mm 3 mps 748 mmHg 84%
05:00 +2°C° 0 mm 3 mps 748 mmHg 84%
06:00 +3°C° 0 mm 3 mps 748 mmHg 81%
07:00 +3°C° 0 mm 4 mps 748 mmHg 77%
08:00 +3°C° 0 mm 4 mps 747 mmHg 73%
09:00 +3°C° 0 mm 4 mps 747 mmHg 75%
10:00 +3°C° 0 mm 4 mps 747 mmHg 77%
11:00 +3°C° 0 mm 4 mps 747 mmHg 79%
12:00 +3°C° 0 mm 3 mps 746 mmHg 82%
13:00 +3°C° 0 mm 3 mps 746 mmHg 85%
14:00 +3°C° 0 mm 3 mps 746 mmHg 88%
15:00 +3°C° 0 mm 3 mps 745 mmHg 90%
16:00 +2°C° 0 mm 3 mps 745 mmHg 93%
17:00 +2°C° 0 mm 3 mps 745 mmHg 96%
18:00 +2°C° 0.1 mm 3 mps 744 mmHg 95%
19:00 +2°C° 0.1 mm 3 mps 744 mmHg 95%
20:00 +2°C° 0.1 mm 3 mps 743 mmHg 95%
21:00 +3°C° 0.2 mm 3 mps 742 mmHg 95%
22:00 +3°C° 0.2 mm 3 mps 741 mmHg 95%
23:00 +3°C° 0.2 mm 4 mps 740 mmHg 95%

21 April, Wednesday

Time Temperature Precipitation Wind Pressure Humidity
00:00 +3°C° 1 mm 4 mps 740 mmHg 95%
01:00 +1°C° 1 mm 4 mps 739 mmHg 96%
02:00 +1°C° 1 mm 4 mps 738 mmHg 97%
03:00 0°C° 1.5 mm 4 mps 737 mmHg 97%
04:00 0°C° 1.5 mm 4 mps 736 mmHg 97%
05:00 0°C° 1.5 mm 4 mps 735 mmHg 97%
06:00 +1°C° 1.2 mm 3 mps 735 mmHg 97%
07:00 0°C° 1.2 mm 3 mps 735 mmHg 97%
08:00 0°C° 1.2 mm 3 mps 734 mmHg 97%
09:00 +1°C° 0.3 mm 3 mps 734 mmHg 97%
10:00 +1°C° 0.3 mm 3 mps 734 mmHg 97%
11:00 +1°C° 0.3 mm 3 mps 734 mmHg 98%
12:00 +1°C° 0.1 mm 3 mps 734 mmHg 97%
13:00 +1°C° 0.1 mm 3 mps 735 mmHg 97%
14:00 0°C° 0.1 mm 4 mps 735 mmHg 96%
15:00 0°C° 0.1 mm 4 mps 735 mmHg 96%
16:00 0°C° 0.1 mm 4 mps 736 mmHg 97%
17:00 0°C° 0.1 mm 4 mps 736 mmHg 97%
18:00 +1°C° 0.1 mm 3 mps 737 mmHg 97%
19:00 +2°C° 0.1 mm 3 mps 738 mmHg 97%
20:00 +2°C° 0.1 mm 3 mps 738 mmHg 97%
21:00 +2°C° 0 mm 3 mps 739 mmHg 97%
22:00 +2°C° 0 mm 3 mps 739 mmHg 96%
23:00 +2°C° 0 mm 3 mps 740 mmHg 95%

22 April, Thursday

Time Temperature Precipitation Wind Pressure Humidity
00:00 +3°C° 0 mm 2 mps 740 mmHg 95%
01:00 +2°C° 0 mm 2 mps 741 mmHg 95%
02:00 +2°C° 0 mm 2 mps 741 mmHg 95%
03:00 +2°C° 0 mm 2 mps 742 mmHg 95%
04:00 +1°C° 0 mm 2 mps 742 mmHg 95%
05:00 +1°C° 0 mm 2 mps 742 mmHg 95%
06:00 +3°C° 0 mm 2 mps 743 mmHg 89%
07:00 +6°C° 0 mm 1 mps 744 mmHg 83%
08:00 +8°C° 0 mm 1 mps 744 mmHg 77%
09:00 +8°C° 0 mm 2 mps 744 mmHg 72%
10:00 +9°C° 0 mm 2 mps 745 mmHg 67%
11:00 +12°C° 0 mm 2 mps 745 mmHg 62%
12:00 +13°C° 0.1 mm 2 mps 745 mmHg 60%
13:00 +13°C° 0.1 mm 2 mps 746 mmHg 57%
14:00 +14°C° 0.1 mm 2 mps 746 mmHg 55%
15:00 +13°C° 0.1 mm 2 mps 746 mmHg 59%
16:00 +13°C° 0.1 mm 2 mps 746 mmHg 63%
17:00 +13°C° 0.1 mm 1 mps 746 mmHg 68%
18:00 +11°C° 0 mm 1 mps 747 mmHg 74%
19:00 +10°C° 0 mm 1 mps 747 mmHg 81%
20:00 +8°C° 0 mm 1 mps 747 mmHg 87%
21:00 +8°C° 0 mm 1 mps 748 mmHg 89%
22:00 +6°C° 0 mm 2 mps 748 mmHg 91%
23:00 +6°C° 0 mm 2 mps 748 mmHg 93%

23 April, Friday

Time Temperature Precipitation Wind Pressure Humidity
00:00 +5°C° 0 mm 2 mps 748 mmHg 93%
01:00 +6°C° 0 mm 1 mps 748 mmHg 93%
02:00 +6°C° 0 mm 1 mps 748 mmHg 94%
03:00 +6°C° 0 mm 1 mps 749 mmHg 94%
04:00 +6°C° 0 mm 1 mps 749 mmHg 94%
05:00 +5°C° 0 mm 1 mps 749 mmHg 94%
06:00 +6°C° 0 mm 2 mps 749 mmHg 88%
07:00 +8°C° 0 mm 2 mps 750 mmHg 81%
08:00 +10°C° 0 mm 2 mps 750 mmHg 75%
09:00 +12°C° 0 mm 2 mps 750 mmHg 70%
10:00 +13°C° 0 mm 3 mps 750 mmHg 65%
11:00 +14°C° 0 mm 3 mps 750 mmHg 60%
12:00 +14°C° 0.3 mm 3 mps 750 mmHg 60%
13:00 +16°C° 0.3 mm 3 mps 750 mmHg 59%
14:00 +16°C° 0.3 mm 3 mps 750 mmHg 58%
15:00 +16°C° 0.4 mm 2 mps 750 mmHg 62%
16:00 +16°C° 0.4 mm 2 mps 750 mmHg 66%
17:00 +15°C° 0.4 mm 1 mps 751 mmHg 69%
18:00 +14°C° 0.2 mm 1 mps 751 mmHg 76%
19:00 +12°C° 0.2 mm 1 mps 751 mmHg 82%
20:00 +11°C° 0.2 mm 1 mps 751 mmHg 88%
21:00 +10°C° 0.4 mm 1 mps 751 mmHg 89%
22:00 +10°C° 0.4 mm 1 mps 752 mmHg 91%
23:00 +10°C° 0.4 mm 1 mps 752 mmHg 93%
Show more